Date,TemperatureHighF,TemperatureAvgF,TemperatureLowF,DewpointHighF,DewpointAvgF,DewpointLowF,HumidityHigh,HumidityAvg,HumidityLow,PressureMaxIn,PressureMinIn,WindSpeedMaxMPH,WindSpeedAvgMPH,GustSpeedMaxMPH,PrecipitationSumIn
2014-1-16,41,38,36,36,32,29,85,78,73,29.96,29.85,10,5,0,0.00
2014-1-17,46,40,33,32,28,21,83,63,56,30.01,29.89,8,4,0,0.00
2014-1-28,21,17,13,5,1,-5,64,48,36,30.37,30.09,19,10,0,0.00
2014-1-29,23,18,15,13,7,0,88,64,43,30.30,30.13,22,10,0,0.00
2014-1-30,29,24,17,16,9,3,63,53,42,30.48,30.22,10,6,0,0.00
2014-1-31,40,33,26,21,18,12,63,53,44,30.25,30.11,20,10,0,0.00
2014-2-1,44,39,36,40,24,-100,88,57,43,30.34,30.05,6,3,0,0.00
2014-2-2,56,46,40,42,38,36,91,75,52,30.09,29.92,10,6,0,0.00
2014-2-3,43,33,29,37,30,24,96,91,78,30.32,30.08,6,2,0,0.00
2014-2-4,34,29,24,28,23,19,85,77,68,30.49,30.27,5,2,0,0.00
2014-2-5,33,31,28,32,29,25,97,95,78,30.27,29.65,8,2,0,0.00
2014-2-6,31,27,21,29,21,15,91,78,68,30.30,29.97,14,4,0,0.00
2014-2-7,33,29,25,23,20,17,78,69,59,30.35,30.23,19,13,0,0.00
2014-2-8,30,26,22,18,12,6,64,56,47,30.36,30.16,16,8,0,0.00
2014-2-9,32,26,21,25,16,7,90,66,51,30.21,30.01,15,5,0,0.00
2014-2-10,28,26,22,24,16,11,88,67,52,30.29,30.01,19,12,0,0.00
2014-2-11,26,21,17,14,10,7,74,62,48,30.49,30.29,16,10,0,0.00
2014-2-12,24,19,13,18,8,3,77,63,50,30.58,30.31,9,4,0,0.00
2014-2-13,35,30,24,34,29,18,98,95,78,30.32,29.03,16,9,0,0.00
2014-2-14,40,37,31,34,30,27,98,75,64,29.78,29.03,37,21,0,0.00
2014-2-15,37,33,28,30,26,-100,96,80,65,29.80,29.58,28,9,0,0.00
2014-2-16,31,26,22,22,17,12,83,69,55,30.11,29.74,29,16,0,0.00
2014-2-17,32,25,18,15,10,6,75,55,35,30.39,30.11,21,10,0,0.00
2014-2-18,39,32,26,35,25,10,96,75,44,30.35,29.96,24,8,0,0.00
2014-2-19,44,39,34,41,33,23,94,80,62,30.12,29.71,22,7,0,0.00
2014-2-20,49,42,35,38,31,27,95,66,42,30.26,29.99,22,8,0,0.00
2014-2-21,49,40,35,49,38,34,99,95,78,30.04,29.68,17,8,0,0.00
2014-2-22,54,47,41,36,27,-100,76,49,30,30.06,29.93,22,13,0,0.00
2014-2-23,57,50,44,35,32,28,67,51,38,30.03,29.85,24,8,0,0.00
2014-2-24,44,37,28,33,20,13,66,51,37,30.09,29.80,25,16,0,0.00
2014-2-25,34,29,23,20,14,9,65,55,47,30.09,29.93,22,12,0,0.00
2014-2-26,32,27,20,25,13,-2,87,57,35,29.98,29.83,22,10,0,0.00
2014-4-14,74,66,61,59,56,53,81,69,52,30.02,29.86,9,7,0,0.00
2014-4-15,62,54,35,59,52,34,97,93,83,29.89,29.53,28,10,0,0.00
2014-4-16,47,39,31,33,22,17,96,55,34,30.57,29.90,25,12,0,0.00
2014-4-17,46,40,35,34,27,17,74,58,39,30.75,30.58,7,4,0,0.00
2014-4-18,48,41,34,36,32,27,78,70,56,30.62,30.29,6,3,0,0.00
2014-4-19,66,55,41,39,31,24,80,45,23,30.35,30.23,14,5,0,0.00
2014-4-20,58,50,45,37,29,-100,69,47,33,30.49,30.35,7,4,0,0.00
2014-4-21,66,53,41,43,33,23,69,49,19,30.34,29.89,5,2,0,0.00
2014-4-22,71,60,51,55,49,43,82,68,47,29.89,29.51,13,7,0,0.00
2014-4-23,61,53,45,50,40,32,73,61,46,29.82,29.49,30,20,0,0.00
2014-4-24,60,51,42,34,22,16,68,36,18,30.01,29.83,26,19,0,0.00
2014-4-25,63,52,45,41,27,19,71,39,26,30.06,29.80,12,5,0,0.00
2014-4-26,66,52,45,48,45,41,95,78,41,29.88,29.71,15,4,0,0.00
2014-4-27,58,51,46,43,35,-100,73,58,42,30.12,29.87,17,11,0,0.00
2014-4-28,65,55,45,40,36,29,75,51,27,30.12,30.02,9,4,0,0.00
2014-4-29,53,47,43,41,37,-100,84,74,61,30.40,30.13,15,9,0,0.00
2014-4-30,49,45,43,49,44,42,99,98,96,30.33,30.02,11,8,0,0.00
2014-5-1,78,64,49,65,55,49,99,78,36,30.00,29.68,17,7,0,0.00
2014-5-2,69,63,56,55,43,37,81,52,32,29.85,29.71,22,10,0,0.00
2014-5-3,71,61,54,51,40,-100,79,51,34,29.88,29.74,18,6,0,0.00
2014-5-4,63,57,54,51,39,-100,80,55,30,29.79,29.64,29,18,0,0.00
2014-5-5,68,58,49,39,34,26,68,43,23,29.89,29.78,25,15,0,0.00
2014-5-6,70,60,51,38,33,27,56,38,26,30.06,29.88,17,7,0,0.00
2014-5-7,57,57,57,30,30,30,36,36,35,30.07,30.07,3,2,0,0.00
2014-5-13,68,59,54,47,45,44,76,61,44,30.29,30.21,6,4,0,0.00
2014-5-14,71,56,50,57,50,44,96,80,58,30.32,30.24,5,3,0,0.00
2014-5-15,70,62,56,66,61,55,99,96,85,30.25,30.09,7,4,0,0.00
2014-5-16,67,65,62,66,64,61,98,96,94,30.09,29.81,16,8,0,0.00
2014-5-17,72,62,53,58,46,39,98,62,34,30.11,29.83,14,10,0,0.00
2014-5-18,68,60,53,43,37,-100,67,45,32,30.19,30.10,16,8,0,0.00
2014-5-19,71,59,51,42,31,-100,51,38,27,30.22,30.06,27,10,0,0.00
2014-5-20,78,66,55,46,39,-100,62,40,22,30.14,29.96,15,9,0,0.00
2014-5-21,78,71,64,55,49,42,68,47,35,29.99,29.89,13,6,0,0.00
2014-5-22,66,60,58,60,54,-100,95,87,71,29.89,29.80,8,3,0,0.00
2014-5-23,68,61,56,61,57,54,97,88,68,29.96,29.84,12,3,0,0.00
2014-5-24,70,60,56,59,55,53,97,86,58,30.08,29.92,11,5,0,0.00
2014-5-25,83,68,56,57,50,-100,94,60,25,30.11,30.01,12,5,0,0.00
2014-5-26,89,79,67,55,51,45,52,38,26,30.06,29.88,19,12,0,0.00
2014-5-27,89,79,72,65,58,54,66,49,34,29.89,29.74,22,10,0,0.00
2014-5-28,74,57,52,63,53,46,94,87,68,30.17,29.79,10,6,0,0.00
2014-5-29,63,55,50,48,45,41,82,69,56,30.23,30.16,8,4,0,0.00
2014-5-30,77,63,56,55,48,41,72,58,40,30.17,29.98,8,3,0,0.00
2014-5-31,71,63,57,56,50,45,79,65,43,30.29,30.07,10,5,0,0.00
2014-6-1,81,65,56,49,39,-100,73,45,23,30.36,30.26,7,4,0,0.00
2014-6-2,83,73,60,58,50,38,60,45,34,30.27,30.01,14,8,0,0.00
2014-6-3,90,70,67,69,51,-100,90,59,43,30.03,29.81,14,6,0,0.00
2014-6-4,85,71,62,64,62,60,93,75,46,29.85,29.74,4,2,0,0.00
2014-6-5,76,67,60,63,59,50,96,78,46,29.79,29.64,15,5,0,0.00
2014-6-6,76,68,60,53,51,48,68,55,44,29.94,29.79,15,10,0,0.00
2014-6-7,84,73,61,57,54,52,73,52,34,30.00,29.91,10,5,0,0.00
2014-6-8,89,76,68,59,52,-100,70,48,30,29.96,29.86,8,4,0,0.00
2014-6-9,74,65,62,65,61,53,96,87,50,29.97,29.89,9,3,0,0.00
2014-6-10,76,69,63,69,66,62,98,90,77,29.98,29.93,4,2,0,0.00
2014-6-11,69,64,60,67,59,57,96,86,74,30.12,29.98,11,5,0,0.00
2014-6-12,72,63,58,69,61,57,98,93,85,30.10,29.95,7,3,0,0.00
2014-6-13,77,67,63,70,65,63,99,95,78,29.93,29.73,12,3,0,0.00
2014-6-14,75,69,61,68,58,49,95,71,48,30.02,29.78,22,12,0,0.00
2014-6-15,80,69,59,57,50,-100,80,58,42,30.10,30.03,15,9,0,0.00
2014-6-16,82,72,65,60,58,54,82,62,40,30.16,30.05,6,2,0,0.00
2014-6-17,95,82,72,71,66,61,75,58,40,30.07,29.89,10,4,0,0.00
2014-6-18,89,84,79,70,65,60,73,54,39,29.96,29.80,20,13,0,0.00
2014-6-19,81,74,68,68,64,62,84,72,54,30.01,29.93,10,4,0,0.00
2014-6-20,82,74,65,66,50,45,82,45,29,30.01,29.90,13,6,0,0.00
2014-6-21,78,70,62,55,49,45,64,49,37,29.97,29.88,7,4,0,0.00
2014-6-22,81,70,65,59,50,-100,79,55,38,30.02,29.92,5,3,0,0.00
2014-6-23,87,76,66,60,58,55,72,54,38,30.12,30.04,7,5,0,0.00
2014-6-24,73,68,64,61,58,53,83,71,50,30.16,30.02,10,4,0,0.00
2014-6-25,84,75,65,72,69,62,98,82,65,30.02,29.83,8,6,0,0.00
2014-6-26,87,77,71,70,68,64,92,75,55,29.95,29.80,11,5,0,0.00
2014-6-27,86,75,67,66,61,55,87,64,40,30.18,29.98,6,3,0,0.00
2014-6-28,88,76,67,61,56,48,73,53,27,30.27,30.22,8,4,0,0.00
2014-6-29,88,72,69,62,49,-100,69,51,42,30.26,30.12,7,4,0,0.00
2014-6-30,87,76,68,68,64,53,86,69,43,30.12,29.94,9,5,0,0.00
2014-7-1,89,81,73,72,69,65,84,68,55,29.96,29.81,11,6,0,0.00
2014-7-2,91,83,74,75,71,68,87,69,57,29.91,29.82,10,6,0,0.00
2014-7-3,89,79,69,75,72,67,95,81,62,29.99,29.87,17,4,0,0.00
2014-7-4,72,70,65,69,64,55,96,84,61,29.98,29.89,17,8,0,0.00
2014-7-5,82,73,63,55,52,50,66,49,34,30.14,30.01,18,13,0,0.00
2014-7-6,88,77,67,62,49,-100,61,42,31,30.10,29.92,17,9,0,0.00
2014-7-7,93,84,72,67,64,61,75,54,39,29.93,29.72,15,11,0,0.00
2014-7-8,95,78,71,72,56,-100,89,56,40,29.83,29.66,20,8,0,0.00
2014-7-9,91,80,71,69,65,59,84,64,34,29.93,29.77,14,9,0,0.00
2014-7-10,81,77,71,65,63,61,74,62,50,30.14,29.95,7,3,0,0.00
2014-7-11,85,77,72,65,60,53,77,58,40,30.21,30.12,6,3,0,0.00
2014-7-12,90,79,72,65,62,58,78,58,38,30.22,30.12,7,4,0,0.00
2014-7-13,82,73,71,72,64,60,86,71,59,30.12,29.90,8,5,0,0.00
2014-7-14,86,77,71,73,71,68,94,82,63,29.94,29.83,16,5,0,0.00
2014-7-15,88,70,71,75,67,69,95,82,64,29.80,29.73,12,4,0,0.00
2014-7-16,84,75,68,70,64,56,95,72,45,29.87,29.74,15,6,0,0.00
2014-7-17,84,76,68,59,56,53,69,51,38,30.09,29.88,11,4,0,0.00
2014-7-18,83,75,66,59,55,49,74,52,33,30.22,30.10,7,3,0,0.00
2014-7-19,76,72,65,63,58,52,74,60,48,30.24,30.18,5,3,0,0.00
2014-7-20,75,67,61,62,58,53,86,74,51,30.18,30.11,2,1,0,0.00
2014-7-21,87,72,63,65,62,60,94,72,40,30.20,30.13,5,2,0,0.00
2014-7-22,90,82,71,69,66,60,75,61,47,30.17,30.04,10,7,0,0.00
2014-7-23,90,76,73,74,64,64,83,62,57,30.04,29.76,13,8,0,0.00
2014-7-24,80,76,71,72,64,58,86,68,47,29.90,29.78,9,5,0,0.00
2014-7-25,86,76,66,61,56,52,71,53,33,30.03,29.91,9,4,0,0.00
2014-7-26,84,75,69,68,63,57,78,66,48,30.00,29.89,13,7,0,0.00
2014-7-27,88,75,72,72,66,65,88,72,51,29.90,29.66,9,6,0,0.00
2014-7-28,83,76,71,73,67,60,92,74,50,29.65,29.51,24,10,0,0.00
2014-7-29,80,70,63,59,54,50,75,59,38,29.96,29.68,17,10,0,0.00
2014-7-30,83,75,63,59,54,47,74,50,29,30.04,29.96,9,5,0,0.00
2014-7-31,83,69,69,67,55,56,74,59,46,30.13,30.04,10,6,0,0.00
2014-8-1,87,76,71,70,67,64,85,73,49,30.21,30.13,9,4,0,0.00
2014-8-2,73,69,63,65,62,57,91,80,58,30.19,30.10,9,4,0,0.00
2014-8-3,76,70,65,66,64,62,94,82,64,30.12,30.03,4,2,0,0.00
2014-8-4,88,78,69,69,67,65,89,69,49,30.07,30.01,7,4,0,0.00
2014-8-5,93,82,72,67,64,58,78,57,32,30.04,29.89,9,4,0,0.00
2014-8-6,84,76,70,66,62,58,83,63,44,29.91,29.82,14,5,0,0.00
2014-8-7,83,76,68,59,54,50,66,48,36,30.01,29.89,17,8,0,0.00
2014-8-8,83,75,64,57,55,52,71,51,35,30.09,30.02,12,6,0,0.00
2014-8-9,86,77,68,61,56,50,72,49,29,30.12,30.06,6,3,0,0.00
2014-8-10,88,76,70,63,57,55,76,50,35,30.13,30.07,7,3,0,0.00
2014-8-11,88,80,72,66,59,54,76,51,32,30.13,30.09,10,4,0,0.00
2014-8-12,78,74,70,70,67,64,89,79,67,30.09,29.86,10,7,0,0.00
2014-8-13,82,72,68,69,67,64,97,83,58,29.84,29.65,21,10,0,0.00
2014-8-14,79,71,63,63,54,50,76,57,37,29.88,29.77,17,12,0,0.00
2014-8-15,75,68,61,57,52,50,67,56,43,29.98,29.88,15,9,0,0.00
2014-8-16,79,71,64,60,53,50,69,54,38,30.01,29.91,12,8,0,0.00
2014-8-17,82,74,67,64,58,52,77,58,45,29.91,29.80,13,9,0,0.00
2014-8-18,80,72,63,57,55,52,75,56,41,29.92,29.81,13,7,0,0.00
2014-8-19,80,72,64,66,60,55,83,67,50,29.94,29.86,5,3,0,0.00
2014-8-20,85,76,70,66,62,56,83,64,45,30.01,29.93,5,2,0,0.00
2014-8-21,82,75,69,66,62,57,86,65,50,30.06,30.00,6,3,0,0.00
2014-8-22,76,69,66,66,63,59,92,80,62,30.06,29.99,10,3,0,0.00
2014-8-23,73,69,66,62,60,55,87,75,58,30.11,30.03,7,4,0,0.00
2014-8-24,79,69,64,62,58,57,82,67,49,30.15,30.10,6,3,0,0.00
2014-8-25,87,77,65,63,60,58,84,59,39,30.17,30.11,8,4,0,0.00
2014-8-26,86,78,72,69,65,57,81,65,45,30.16,30.07,10,3,0,0.00
2014-8-27,94,80,70,68,64,50,80,61,38,30.08,29.85,10,5,0,0.00
2014-8-28,81,75,67,69,57,49,82,56,40,30.03,29.83,18,10,0,0.00
2014-8-29,79,70,62,56,53,50,71,56,40,30.24,30.05,7,4,0,0.00
2014-8-30,80,72,67,66,60,55,80,67,49,30.27,30.15,7,4,0,0.00
2014-8-31,90,76,72,74,68,65,91,76,55,30.15,29.95,11,6,0,0.00
2014-9-1,89,80,74,74,72,70,91,77,56,30.00,29.91,11,5,0,0.00
2014-9-2,94,84,77,74,71,67,88,67,46,29.93,29.78,21,10,0,0.00
2014-9-3,86,79,72,69,61,55,76,56,36,30.10,29.80,21,9,0,0.00
2014-9-4,88,79,72,66,60,56,65,53,35,30.19,30.11,8,4,0,0.00
2014-9-5,87,79,71,75,71,63,90,77,61,30.16,30.01,9,4,0,0.00
2014-9-6,91,80,69,75,71,64,92,76,56,30.01,29.82,17,10,0,0.00
2014-9-7,81,71,64,65,56,49,89,62,42,30.19,29.93,8,4,0,0.00
2014-9-8,73,69,65,62,56,49,80,63,46,30.32,30.19,10,5,0,0.00
2014-9-9,69,66,62,62,59,54,84,78,66,30.28,30.15,9,6,0,0.00
2014-9-10,78,68,61,63,59,55,87,74,48,30.14,30.03,8,4,0,0.00
2014-9-11,82,75,68,70,66,60,87,76,65,30.03,29.81,15,8,0,0.00
2014-9-12,75,68,60,59,54,50,77,62,48,30.19,29.94,12,5,0,0.00
2014-9-13,69,62,58,61,56,49,93,80,64,30.19,30.09,9,3,0,0.00
2014-9-14,72,61,54,54,47,44,80,59,38,30.28,30.15,2,0,0,0.00
2014-9-15,74,64,56,54,46,40,70,53,33,30.24,30.09,1,0,0,0.00
2014-9-16,71,65,58,59,55,52,91,71,56,30.08,29.96,1,0,0,0.00
2014-9-17,74,65,58,53,47,40,77,55,32,30.06,29.95,2,0,0,0.00
2014-9-18,75,67,59,54,49,43,78,55,34,30.09,29.94,1,0,0,0.00
2014-9-19,67,61,55,50,47,40,76,59,47,30.38,30.10,1,0,0,0.00
2014-9-20,75,67,60,65,57,48,85,70,53,30.35,30.06,1,0,0,0.00
2014-9-21,76,70,67,69,66,63,94,85,76,30.07,29.61,2,0,0,0.00
2014-9-22,73,66,57,67,51,40,86,61,42,30.16,29.61,4,2,0,0.00
2014-9-23,73,61,53,54,44,40,69,55,35,30.41,30.16,2,0,0,0.00
2014-9-25,65,62,58,58,56,53,88,80,67,30.47,30.22,1,0,0,0.00
2014-9-26,79,68,59,56,54,50,81,61,41,30.22,30.15,3,1,0,0.00
2014-9-27,83,74,63,60,57,55,82,57,39,30.22,30.15,6,2,0,0.00
2014-9-28,86,73,65,63,59,58,81,63,40,30.17,30.01,10,2,0,0.00
2014-9-29,80,72,67,62,60,58,78,66,48,30.01,29.89,11,4,0,0.00
2014-9-30,71,66,62,64,60,58,89,82,67,29.99,29.91,11,4,0,0.00
2014-10-1,63,61,59,60,58,56,94,89,84,30.08,29.98,5,3,0,0.00
2014-10-2,66,62,59,57,56,54,90,81,68,30.15,30.07,5,3,0,0.00
2014-10-3,69,62,55,56,53,49,86,75,54,30.13,29.87,7,4,0,0.00
2014-10-4,68,63,54,66,57,40,97,83,60,29.86,29.50,25,10,0,0.00
2014-10-5,62,52,45,41,37,35,68,55,40,30.00,29.70,18,12,0,0.00
2014-10-6,69,61,52,54,47,38,72,60,40,30.08,30.00,9,5,0,0.00
2014-10-7,71,67,63,62,56,51,87,70,51,30.06,29.93,12,6,0,0.00
2014-10-8,72,67,62,62,54,43,91,65,43,29.94,29.79,22,14,0,0.00
2014-10-9,68,62,56,43,41,38,60,47,34,30.07,29.93,24,14,0,0.00
2014-10-10,65,59,53,45,41,39,61,51,40,30.14,30.06,10,5,0,0.00
2014-10-11,59,53,50,50,48,42,94,82,56,30.17,30.03,6,3,0,0.00
2014-10-12,63,54,49,48,42,34,91,64,36,30.32,30.16,6,3,0,0.00
2014-10-13,64,59,53,61,52,44,96,77,65,30.34,30.24,6,3,0,0.00
2014-10-14,75,69,63,66,64,61,95,83,69,30.24,30.11,8,5,0,0.00
2014-10-15,75,71,68,68,67,65,95,88,79,30.11,29.83,9,6,0,0.00
2014-10-16,71,68,63,68,63,55,97,85,64,29.84,29.68,11,6,0,0.00
2014-10-17,73,65,59,57,54,50,86,69,49,29.74,29.66,16,8,0,0.00
2014-10-18,70,63,56,57,52,45,86,69,49,29.71,29.56,20,10,0,0.00
2014-10-19,56,50,44,46,37,29,70,58,43,30.06,29.71,23,16,0,0.00
2014-10-20,59,52,42,47,37,30,67,57,46,30.12,29.97,14,8,0,0.00
2014-10-21,65,60,56,56,50,44,88,71,59,29.97,29.83,14,5,0,0.00
2014-10-22,57,53,49,54,50,47,94,87,83,29.93,29.72,9,5,0,0.00
2014-10-23,52,50,49,49,48,46,94,90,84,29.78,29.69,19,10,0,0.00
2014-10-24,61,55,50,49,46,43,84,72,59,29.84,29.76,15,10,0,0.00
2014-10-25,67,59,51,47,43,39,67,56,44,29.87,29.56,21,13,0,0.00
2014-10-26,61,58,53,50,42,37,73,56,42,29.83,29.54,25,16,0,0.00
2014-10-27,64,57,49,41,39,37,68,52,39,30.03,29.83,18,12,0,0.00
2014-10-28,71,62,56,58,49,38,73,62,46,30.04,29.91,15,5,0,0.00
2014-10-29,72,63,53,59,54,43,86,73,46,29.94,29.82,19,12,0,0.00
2014-10-30,59,52,47,49,42,37,89,70,49,30.02,29.93,15,8,0,0.00
2014-10-31,53,49,45,45,38,34,89,68,59,30.02,29.88,10,5,0,0.00
2014-11-1,47,44,41,44,39,37,91,82,74,29.87,29.76,10,6,0,0.00
2014-11-2,47,42,40,37,29,20,87,60,40,30.04,29.74,28,17,0,0.00
2014-11-3,61,50,39,33,27,21,65,44,24,30.15,30.04,25,15,0,0.00
2014-11-4,68,60,53,40,29,24,45,31,23,30.17,30.04,23,12,0,0.00
2014-11-5,62,59,56,45,39,32,62,49,33,30.14,30.01,20,13,0,0.00
2014-11-6,57,50,47,50,45,36,96,84,46,30.12,29.57,12,5,0,0.00
2014-11-7,52,47,40,46,38,29,91,71,56,29.94,29.57,26,16,0,0.00
2014-11-8,47,42,36,34,28,24,70,59,47,30.05,29.92,19,10,0,0.00
2014-11-9,55,49,45,38,36,33,72,60,46,30.02,29.90,15,8,0,0.00
2014-11-10,60,53,45,47,38,33,77,57,38,30.19,30.02,9,4,0,0.00
2014-11-11,64,57,52,57,53,47,96,85,70,30.16,29.91,8,3,0,0.00
2014-11-12,64,55,47,59,50,37,98,84,55,30.08,29.88,16,5,0,0.00
2014-11-13,49,42,36,37,33,29,92,69,49,30.12,29.98,10,6,0,0.00
2014-11-18,45,31,23,39,15,6,79,52,37,30.10,29.59,29,22,0,0.00
2014-11-19,34,28,21,18,11,7,59,50,38,30.27,30.09,23,14,0,0.00
2014-11-20,44,38,32,27,21,14,56,50,40,30.06,29.85,25,17,0,0.00
2014-11-21,36,32,28,18,15,12,60,49,39,30.51,30.03,24,15,0,0.00
2014-11-22,42,34,27,23,16,11,58,47,39,30.51,30.21,19,12,0,0.00
2014-11-23,55,48,42,50,30,23,90,52,36,30.22,30.02,22,9,0,0.00
2014-11-24,67,62,52,61,58,50,97,84,69,30.00,29.57,21,11,0,0.00
2014-11-25,66,56,50,59,40,31,80,54,41,30.16,29.72,18,13,0,0.00
2014-11-26,50,39,34,35,33,30,96,81,49,30.20,29.77,16,8,0,0.00
2014-11-27,37,36,34,35,32,27,95,86,77,30.06,29.83,16,10,0,0.00
2014-11-28,37,32,28,28,22,15,82,67,52,30.28,30.06,19,11,0,0.00
2014-11-29,43,33,27,35,20,15,74,59,50,30.37,30.23,15,6,0,0.00
2014-11-30,54,48,43,43,36,33,74,63,56,30.23,30.07,19,9,0,0.00
2014-12-1,63,52,41,50,43,31,84,71,63,30.45,30.07,22,14,0,0.00
2014-12-2,42,38,34,41,30,20,96,74,50,30.62,30.33,16,7,0,0.00
2014-12-3,45,42,40,44,41,39,97,95,93,30.33,30.09,15,5,0,0.00
2014-12-4,46,40,36,28,25,21,65,54,46,30.53,30.32,16,8,0,0.00
2014-12-5,44,38,34,42,32,21,95,79,57,30.59,30.34,8,5,0,0.00
2014-12-6,49,44,39,47,42,37,96,93,88,30.35,30.09,8,3,0,0.00
2014-12-7,40,36,30,37,23,4,93,61,33,30.61,30.19,9,6,0,0.00
2014-12-8,35,29,23,32,17,3,90,64,33,30.69,30.36,11,6,0,0.00
2014-12-9,41,39,35,40,37,32,97,93,86,30.36,29.64,17,11,0,0.00
2014-12-10,40,34,32,38,31,27,95,86,76,29.68,29.57,21,16,0,0.00
2014-12-11,37,33,29,29,26,24,90,75,61,29.87,29.60,24,16,0,0.00
2014-12-12,37,34,32,28,26,23,79,71,65,29.99,29.88,20,15,0,0.00
2014-12-13,44,38,34,32,29,26,80,73,55,29.99,29.88,26,16,0,0.00
2014-12-14,45,40,37,34,32,31,82,74,63,29.98,29.86,17,10,0,0.00
2014-12-15,48,42,36,37,33,30,81,72,56,30.12,29.98,9,4,0,0.00
2014-12-16,47,43,38,44,39,34,96,87,82,30.11,29.85,7,3,0,0.00
2014-12-17,54,47,41,45,41,31,97,81,65,29.89,29.79,24,12,0,0.00
2014-12-18,42,40,37,31,29,26,74,66,58,29.99,29.87,24,17,0,0.00
2014-12-19,38,35,31,30,26,22,74,68,59,30.20,29.96,19,13,0,0.00
2014-12-20,33,28,30,25,21,22,75,70,67,30.32,30.19,13,4,0,0.00
2014-12-21,35,33,31,32,28,24,88,82,75,30.35,30.28,8,4,0,0.00
2014-12-22,43,39,35,42,37,32,96,91,87,30.34,30.16,11,4,0,0.00
2014-12-23,46,44,42,45,43,41,98,98,96,30.17,30.07,10,6,0,0.00
2014-12-24,59,47,43,59,47,42,99,99,98,30.09,29.53,14,6,0,0.00
2014-12-25,62,51,44,62,42,31,99,70,48,30.11,29.49,31,17,0,0.00
2014-12-26,50,44,39,34,32,31,73,63,50,30.25,30.11,17,12,0,0.00
2014-12-27,55,48,43,38,35,32,67,60,51,30.27,30.06,16,8,0,0.00
2014-12-28,53,47,41,45,39,31,88,74,58,30.08,29.87,21,10,0,0.00
2014-12-29,43,39,33,31,24,20,68,57,41,30.26,30.06,18,9,0,0.00
2014-12-30,34,31,27,22,17,11,69,56,44,30.41,30.26,9,2,0,0.00
2014-12-31,32,30,26,19,14,10,70,52,42,30.37,30.19,17,9,0,0.00
2015-1-1,38,32,25,21,14,9,54,47,40,30.20,29.98,25,12,0,0.00
2015-1-2,42,38,34,24,22,19,63,52,45,30.47,30.02,23,15,0,0.00